Regional Weather Roundup
Issued by NWS

Home | Current Version | Previous Version | Graphics & Text | Print | Product List | Glossary On
Versions: 1 2 3 4 5 6 7 8 9 10 11 12 13 14 15 16 17 18 19 20 21 22 23 24 25 26 27 28 29 30 31 32 33 34 35 36 37 38 39 40 41 42 43 44 45 46 47 48 49 50
585
ASUS44 KJAN 200410
RWRMS

MISSISSIPPI HOURLY WEATHER ROUNDUP
NATIONAL WEATHER SERVICE JACKSON MS
1100 PM CDT SAT APR 19 2014

NOTE: "FAIR: INDICATES FEW OR NO CLOUDS BELOW 12,000 FEET WITH NO
SIGNIFICANT WEATHER AND/OR OBSTRUCTIONS TO VISIBILITY.

MSZ001>002-007>008-010>013-018>021-025>028-034>036-200500-
NORTHWEST MISSISSIPPI

CITY           SKY/WX    TMP DP  RH WIND       PRES   REMARKS
CLARKSDALE       N/A     61  48  63 CALM      30.16S
CLEVELAND      FAIR      61  54  76 N3        30.15R
GREENWOOD      CLEAR     57  52  83 CALM      30.15R
GREENVILLE     CLEAR     61  53  75 CALM      30.14S
GRENADA        FAIR      54  50  87 CALM      30.15S
OLIVE BRANCH   CLEAR     61  45  55 CALM      30.16S
OXFORD         FAIR      54  46  76 MISG      30.17S
TUNICA         CLEAR     59  50  72 N3        30.16S
$$

MSZ003>006-009-014>017-022>024-029>033-037>039-200500-
NORTHEAST MISSISSIPPI

CITY           SKY/WX    TMP DP  RH WIND       PRES   REMARKS
BELMONT        FAIR      54  48  81 CALM      30.16R
COLUMBUS AFB   CLEAR     55  51  88 CALM      30.15R
CORINTH        FAIR      55  46  71 CALM      30.15S
GOLDN TRIANGLE CLEAR     63  43  48 E8        30.17S
STARKVILLE     FAIR      54  50  87 CALM      30.14S
TUPELO         CLEAR     58  48  69 CALM      30.15R
$$

MSZ040-058-200500-
CENTRAL MISSISSIPPI

CITY           SKY/WX    TMP DP  RH WIND       PRES   REMARKS
JACKSON INTL   PTCLDY    58  54  86 CALM      30.16R
JACKSON HAWKNS CLEAR     63  51  65 CALM      30.15R
MERIDIAN KEY   CLEAR     55  52  89 CALM      30.14R
MERIDIAN NAS   CLEAR     56  49  77 CALM      30.15R
RAYMOND        FAIR      54  50  87 CALM      30.15S FOG
VICKSBURG      CLEAR     62  58  86 CALM      30.15S
$$

MSZ059>079-200500-
SOUTH MISSISSIPPI

CITY           SKY/WX    TMP DP  RH WIND       PRES   REMARKS
BROOKHAVEN     FAIR      55  54  94 CALM      30.16F
COLUMBIA       FAIR      54  54 100 MISG      30.14R
HATTIESBURG    CLEAR     57  55  93 CALM      30.14R
MCCOMB         CLEAR     59  52  77 N3        30.15S
NATCHEZ        CLEAR     57  54  88 CALM      30.15S
PINE BELT      CLEAR     55  52  88 CALM      30.14S
$$

MSZ080>082-200500-
COASTAL MISSISSIPPI

CITY           SKY/WX    TMP DP  RH WIND       PRES   REMARKS
BILOXI         CLEAR     64  57  79 NW2       30.11R
PASCAGOULA     CLEAR     57  56  96 CALM      30.11R
GULFPORT       CLEAR     63  55  75 CALM      30.11R
$$



USA.gov is the U.S. government's official web portal to all federal, state and local government web resources and services.